Date: August 31st 2007

SB KEPS @ AMSAT $ORB07242 O Orbital Elements 07242 OSCAR

HR AMSAT ORBITAL ELEMENTS FOR OSCAR SATELLITES FROM WA5QGD FORT WORTH,TX August 30, 2007 Send Subscribe/unsubscribe to KEPS at http://www amsat org/mailman/listinfo/keps BID: ORB07242 O TO ALL RADIO AMATEURS BT

Satellite: AO-07 Catalog number: 07530 Epoch time: 07241 64330773 Element set: 0965 Inclination: 101 5099 deg RA of node: 277 4770 deg Eccentricity: 0 0012143 Arg of perigee: 111 9777 deg Mean anomaly: 248 2584 deg Mean motion: 12 53572334 rev/day Decay rate: -2 8e-07 rev/day^2 Epoch rev: 50032 Checksum: 292

Satellite: AO-10 Catalog number: 14129 Epoch time: 07241 39813590 Element set: 0421 Inclination: 026 1993 deg RA of node: 259 1802 deg Eccentricity: 0 6063574 Arg of perigee: 051 5762 deg Mean anomaly: 348 9347 deg Mean motion: 02 05870027 rev/day Decay rate: -2 03e-06 rev/day^2 Epoch rev: 18207 Checksum: 294

Satellite: UO-11 Catalog number: 14781 Epoch time: 07242 85209885 Element set: 459 Inclination: 098 1880 deg RA of node: 266 9839 deg Eccentricity: 0 0008108 Arg of perigee: 295 0989 deg Mean anomaly: 064 9392 deg Mean motion: 14 79577475 rev/day Decay rate: 4 50e-06 rev/day^2 Epoch rev: 26077 Checksum: 367

Satellite: RS-15 Catalog number: 23439 Epoch time: 07241 95174288 Element set: 0063 Inclination: 064 8139 deg RA of node: 247 6286 deg Eccentricity: 0 0157406 Arg of perigee: 177 6242 deg Mean anomaly: 182 5464 deg Mean motion: 11 27552587 rev/day Decay rate: -3 9e-07 rev/day^2 Epoch rev: 52201 Checksum: 319

Satellite: FO-29 Catalog number: 24278 Epoch time: 07242 89542069 Element set: 581 Inclination: 098 5536 deg RA of node: 192 5321 deg Eccentricity: 0 0349722 Arg of perigee: 249 6973 deg Mean anomaly: 106 6260 deg Mean motion: 13 52931555 rev/day Decay rate: -4 0e-08 rev/day^2 Epoch rev: 54500 Checksum: 323

Satellite: SO-33 Catalog number: 25509 Epoch time: 07242 84891999 Element set: 8 Inclination: 031 4319 deg RA of node: 163 6108 deg Eccentricity: 0 0355019 Arg of perigee: 000 0718 deg Mean anomaly: 359 9947 deg Mean motion: 14 28173035 rev/day Decay rate: 2 36e-06 rev/day^2 Epoch rev: 46193 Checksum: 316

Satellite: AO-40 Catalog number: 26609 Epoch time: 07239 20300535 Element set: 0926 Inclination: 006 3227 deg RA of node: 124 1951 deg Eccentricity: 0 7963201 Arg of perigee: 357 1674 deg Mean anomaly: 000 5325 deg Mean motion: 01 25588594 rev/day Decay rate: -1 57e-06 rev/day^2 Epoch rev: 03133 Checksum: 283

Satellite: VO-52 Catalog number: 28650 Epoch time: 07241 26335469 Element set: 0714 Inclination: 097 8283 deg RA of node: 310 3282 deg Eccentricity: 0 0027632 Arg of perigee: 018 1291 deg Mean anomaly: 342 1019 deg Mean motion: 14 81350308 rev/day Decay rate: -5 7e-07 rev/day^2 Epoch rev: 12523 Checksum: 280

Satellite: PO-63 Catalog number: 29712 Epoch time: 07242 76130851 Element set: 685 Inclination: 097 9165 deg RA of node: 300 8694 deg Eccentricity: 0 0012986 Arg of perigee: 245 9694 deg Mean anomaly: 114 0157 deg Mean motion: 14 79806381 rev/day Decay rate: 4 69e-06 rev/day^2 Epoch rev: 3436 Checksum: 338

/EX SB KEPS @ AMSAT $ORB07242 D Orbital Elements 07242 MICROS

HR AMSAT ORBITAL ELEMENTS FOR THE MICROSATS FROM WA5QGD FORT WORTH,TX August 30, 2007 Send Subscribe/unsubscribe to KEPS at http://www amsat org/mailman/listinfo/keps BID: ORB07242 D TO ALL RADIO AMATEURS BT

Satellite: AO-16 Catalog number: 20439 Epoch time: 07241 46903417 Element set: 0118 Inclination: 098 2009 deg RA of node: 232 0043 deg Eccentricity: 0 0010803 Arg of perigee: 334 3805 deg Mean anomaly: 025 6884 deg Mean motion: 14 31768524 rev/day Decay rate: -4 0e-08 rev/day^2 Epoch rev: 91903 Checksum: 276

Satellite: LO-19 Catalog number: 20442 Epoch time: 07242 54330573 Element set: 45 Inclination: 098 1834 deg RA of node: 242 2634 deg Eccentricity: 0 0011408 Arg of perigee: 328 6877 deg Mean anomaly: 031 3636 deg Mean motion: 14 32008642 rev/day Decay rate: -4 0e-08 rev/day^2 Epoch rev: 91933 Checksum: 281

Satellite: AO-27 Catalog number: 22825 Epoch time: 07241 49728497 Element set: 0766 Inclination: 098 3379 deg RA of node: 208 2087 deg Eccentricity: 0 0009359 Arg of perigee: 049 2180 deg Mean anomaly: 310 9843 deg Mean motion: 14 29216729 rev/day Decay rate: 1 32e-06 rev/day^2 Epoch rev: 72596 Checksum: 343

Satellite: IO-26 Catalog number: 22826 Epoch time: 07242 51193279 Element set: 465 Inclination: 098 3311 deg RA of node: 210 2200 deg Eccentricity: 0 0009788 Arg of perigee: 043 3568 deg Mean anomaly: 316 8378 deg Mean motion: 14 29462711 rev/day Decay rate: -1 5e-07 rev/day^2 Epoch rev: 72619 Checksum: 304

Satellite: PO-28 Catalog number: 22829 Epoch time: 07241 45207432 Element set: 0741 Inclination: 098 3193 deg RA of node: 210 3612 deg Eccentricity: 0 0010241 Arg of perigee: 021 2520 deg Mean anomaly: 338 9123 deg Mean motion: 14 30164261 rev/day Decay rate: -2 8e-07 rev/day^2 Epoch rev: 72628 Checksum: 258

Satellite: GO-32 Catalog number: 25397 Epoch time: 07242 54579848 Element set: 389 Inclination: 098 4098 deg RA of node: 286 4842 deg Eccentricity: 0 0001874 Arg of perigee: 042 2786 deg Mean anomaly: 317 8540 deg Mean motion: 14 23129216 rev/day Decay rate: -1 59e-06 rev/day^2 Epoch rev: 47473 Checksum: 347

Satellite: MO-46 Catalog number: 26548 Epoch time: 07242 69106488 Element set: 884 Inclination: 064 5585 deg RA of node: 312 1751 deg Eccentricity: 0 0006625 Arg of perigee: 187 3186 deg Mean anomaly: 172 7842 deg Mean motion: 14 83168942 rev/day Decay rate: 8 6e-07 rev/day^2 Epoch rev: 37458 Checksum: 347

Satellite: NO-44 Catalog number: 26931 Epoch time: 07241 62246901 Element set: 672 Inclination: 067 0548 deg RA of node: 318 3245 deg Eccentricity: 0 0007058 Arg of perigee: 253 4438 deg Mean anomaly: 106 5886 deg Mean motion: 14 29493079 rev/day Decay rate: -1 90e-06 rev/day^2 Epoch rev: 30859 Checksum: 321

Satellite: SO-50 Catalog number: 27607 Epoch time: 07241 39693357 Element set: 0395 Inclination: 064 5561 deg RA of node: 222 7509 deg Eccentricity: 0 0062995 Arg of perigee: 340 8981 deg Mean anomaly: 018 9146 deg Mean motion: 14 71280963 rev/day Decay rate: -8 6e-07 rev/day^2 Epoch rev: 25189 Checksum: 342

Satellite: CO-55 Catalog number: 27844 Epoch time: 07242 69639519 Element set: 109 Inclination: 098 7203 deg RA of node: 249 9825 deg Eccentricity: 0 0009008 Arg of perigee: 235 4796 deg Mean anomaly: 124 5535 deg Mean motion: 14 20528577 rev/day Decay rate: 3 8e-07 rev/day^2 Epoch rev: 21605 Checksum: 331

Satellite: CO-57 Catalog number: 27848 Epoch time: 07242 51518468 Element set: 67 Inclination: 098 7189 deg RA of node: 248 9732 deg Eccentricity: 0 0008942 Arg of perigee: 239 8591 deg Mean anomaly: 120 1687 deg Mean motion: 14 20345388 rev/day Decay rate: 7 0e-08 rev/day^2 Epoch rev: 21600 Checksum: 335

Satellite: AO-51 Catalog number: 28375 Epoch time: 07241 15099103 Element set: 0899 Inclination: 098 1079 deg RA of node: 276 6915 deg Eccentricity: 0 0084306 Arg of perigee: 322 2249 deg Mean anomaly: 037 3204 deg Mean motion: 14 40577681 rev/day Decay rate: -4 0e-08 rev/day^2 Epoch rev: 16621 Checksum: 309

Satellite: CO-56 Catalog number: 28941 Epoch time: 07241 62681755 Element set: 0548 Inclination: 098 1242 deg RA of node: 311 0207 deg Eccentricity: 0 0216236 Arg of perigee: 012 7917 deg Mean anomaly: 347 8745 deg Mean motion: 15 42656407 rev/day Decay rate: 2 2100e-04 rev/day^2 Epoch rev: 08474 Checksum: 307

Satellite: HO-59 Catalog number: 29484 Epoch time: 07242 68281987 Element set: 638 Inclination: 098 2756 deg RA of node: 304 0499 deg Eccentricity: 0 0186832 Arg of perigee: 358 1764 deg Mean anomaly: 001 8682 deg Mean motion: 15 56839442 rev/day Decay rate: 3 7402e-04 rev/day^2 Epoch rev: 5264 Checksum: 363

Satellite: NO-60 Catalog number: 29661 Epoch time: 07150 05824307 Element set: 300 Inclination: 051 6186 deg RA of node: 176 5045 deg Eccentricity: 0 0007204 Arg of perigee: 190 7749 deg Mean anomaly: 188 7342 deg Mean motion: 16 52052832 rev/day Decay rate: 1 3324117e-01 rev/day^2 Epoch rev: 2554 Checksum: 290

Satellite: NO-61 Catalog number: 29664 Epoch time: 07242 71323542 Element set: 429 Inclination: 051 6276 deg RA of node: 058 1744 deg Eccentricity: 0 0010042 Arg of perigee: 275 4679 deg Mean anomaly: 084 5162 deg Mean motion: 15 96720367 rev/day Decay rate: 3 9763e-04 rev/day^2 Epoch rev: 4004 Checksum: 310

Satellite: CP4 Catalog number: 31122 Epoch time: 07241 63317693 Element set: 0123 Inclination: 098 0796 deg RA of node: 312 5207 deg Eccentricity: 0 0086337 Arg of perigee: 156 8764 deg Mean anomaly: 203 6341 deg Mean motion: 14 55029402 rev/day Decay rate: 5 50e-06 rev/day^2 Epoch rev: 01953 Checksum: 282

Satellite: CP3 Catalog number: 31128 Epoch time: 07241 44360125 Element set: 0116 Inclination: 098 0798 deg RA of node: 311 6696 deg Eccentricity: 0 0103741 Arg of perigee: 158 9518 deg Mean anomaly: 201 5998 deg Mean motion: 14 51860460 rev/day Decay rate: -4 7e-07 rev/day^2 Epoch rev: 01945 Checksum: 301

Satellite: LIBERT Catalog number: 31129 Epoch time: 07242 67601933 Element set: 337 Inclination: 098 0785 deg RA of node: 312 8693 deg Eccentricity: 0 0102805 Arg of perigee: 155 1402 deg Mean anomaly: 205 4714 deg Mean motion: 14 51952580 rev/day Decay rate: 3 38e-06 rev/day^2 Epoch rev: 1961 Checksum: 285

/EX SB KEPS @ AMSAT $ORB07242 W Orbital Elements 07242 WEATHER

HR AMSAT ORBITAL ELEMENTS FOR WEATHER SATELLITES FROM WA5QGD FORT WORTH,TX August 30, 2007 Send Subscribe/unsubscribe to KEPS at http://www amsat org/mailman/listinfo/keps BID: ORB07242 W TO ALL RADIO AMATEURS BT

Satellite: NOAA-10 Catalog number: 16969 Epoch time: 07241 62832823 Element set: 0786 Inclination: 098 7452 deg RA of node: 258 8518 deg Eccentricity: 0 0011887 Arg of perigee: 317 5324 deg Mean anomaly: 042 4935 deg Mean motion: 14 27332593 rev/day Decay rate: 5 0e-07 rev/day^2 Epoch rev: 08970 Checksum: 329

